#timestamp,LO_Frequency,Hit,StdDev 
1667970015.8,286047001.5,P
1667970035.7,286046998.2,N
1667970055.5,286046999.1,N
1667970075.3,286047001.9,N
1667970095.2,286047000.1,N
1667970115.0,286047000.8,N
1667970115.9,286047000.8,N
1667970135.8,286047000.4,N
1667970155.6,286047002.6,N
1667970175.4,286047003.2,N
1667970195.3,286047008.8,N
1667970215.1,286047009.9,N
1667970235.8,286047014.5,Y
1667970255.7,286047017.2,P
1667970275.5,286047019.9,N
1667970295.4,286047022.2,N
1667970315.2,286047029.3,Y
1667970335.0,286047021.3,P
1667970335.9,286047021.3,P
1667970355.8,286047027.3,P
1667970375.6,286047031.2,Y
1667970395.5,286047009.8,P
1667970415.3,286047007.8,N
1667970435.1,286047008.9,N
1667970455.9,286047006.4,N
1667970475.7,286047006.1,N
1667970495.5,286047009.0,N
1667970515.4,286047007.5,N
1667970535.2,286047004.8,N
1667970555.1,286047006.8,N
1667970556.0,286047006.8,N
1667970575.8,286047007.3,N
1667970595.6,286047008.8,N
1667970615.5,286047009.8,N
1667970635.3,286047012.8,Y
1667970655.2,286047005.3,P
1667970675.9,286047005.6,P
1667970695.7,286047002.7,N
1667970715.6,286046997.9,N
1667970735.4,286046997.9,N
1667970755.2,286046992.5,N
1667970775.1,286046990.9,N
1667970776.0,286046990.9,N
1667970795.8,286046986.6,N
1667970815.7,286046986.2,N
1667970835.5,286046983.7,N
1667970855.3,286046983.3,N
1667970875.2,286046978.9,N
1667970895.9,286046976.8,N
1667970915.7,286046978.0,N
1667970935.6,286046974.1,N
1667970955.4,286046968.3,N
1667970975.3,286046961.9,Y
1667970995.1,286046972.2,P
1667970996.0,286046972.2,P
1667971015.8,286046973.3,P
1667971035.7,286046971.2,Y
1667971055.5,286046992.7,P
1667971075.3,286046992.2,N
1667971095.2,286046997.7,N
1667971115.0,286047001.9,N
1667971115.9,286047001.9,N
1667971135.8,286047005.2,N
1667971155.6,286047006.4,N
1667971175.4,286047009.8,N
1667971195.3,286047008.0,N
1667971215.1,286047007.8,N
1667971235.8,286047006.1,N
1667971255.7,286047008.9,N
1667971275.5,286047007.0,N
1667971295.4,286047010.5,N
1667971315.2,286047009.5,N
1667971335.0,286047012.4,N
1667971335.9,286047012.4,N
1667971355.8,286047006.5,N
1667971375.6,286047009.5,N
1667971395.4,286047007.9,N
1667971415.3,286047009.7,N
1667971435.1,286047006.4,N
1667971455.9,286047010.3,N
1667971475.7,286047011.4,N
1667971495.5,286047012.6,N
1667971515.4,286047016.0,N
1667971535.2,286047018.5,N
1667971555.1,286047012.6,N
1667971556.0,286047012.6,N
1667971575.8,286047014.5,N
1667971595.6,286047014.8,N
1667971615.5,286047015.3,N
1667971635.3,286047009.9,N
1667971655.1,286047010.5,N
1667971675.9,286047009.4,N
1667971695.7,286047006.7,N
1667971715.6,286047005.9,N
1667971735.4,286046997.0,N
1667971755.2,286046997.3,N
1667971775.1,286046997.5,N
1667971776.0,286046997.5,N
1667971795.8,286046998.4,N
1667971815.6,286046998.7,N
1667971835.5,286046996.6,N
1667971855.3,286047001.2,N
1667971875.2,286047001.2,N
1667971895.9,286046998.3,N
1667971915.7,286046997.1,N
1667971935.6,286046996.9,N
1667971955.4,286047001.2,N
1667971975.2,286047007.6,N
1667971995.1,286047013.4,N
1667971996.0,286047013.4,N
1667972015.8,286047017.0,N
1667972035.7,286047015.7,N
1667972055.5,286047017.3,N
1667972075.3,286047020.3,N
1667972095.2,286047017.7,N
1667972115.0,286047021.6,N
1667972115.9,286047021.6,N
1667972135.8,286047019.5,N
1667972155.6,286047017.6,N
1667972175.4,286047015.1,N
1667972195.3,286047015.4,N
1667972215.1,286047010.9,N
1667972216.0,286047010.9,N
1667972235.8,286047006.9,N
1667972255.7,286047006.2,N
1667972275.5,286047005.2,N
1667972295.4,286047007.3,N
1667972315.2,286047001.4,N
1667972335.0,286047003.9,N
1667972335.9,286047003.9,N
1667972355.8,286046998.7,N
1667972375.6,286047000.9,N
1667972395.4,286047001.5,N
1667972415.3,286047004.1,N
1667972435.1,286047006.5,N
1667972455.9,286047005.7,N
1667972475.7,286047011.1,N
1667972495.5,286047018.2,N
1667972515.4,286047028.2,Y
1667972535.2,286047023.1,P
1667972555.0,286047029.6,P
1667972555.9,286047029.6,P
1667972575.8,286047033.9,Y
1667972595.6,286047017.7,P
1667972615.5,286047022.4,P
1667972635.3,286047029.8,P
1667972655.1,286047032.4,Y
1667972675.9,286047009.8,P
1667972695.7,286047011.3,N
1667972715.5,286047012.4,N
1667972735.4,286047015.6,N
1667972755.2,286047017.5,Y
1667972775.1,286047005.2,P
1667972776.0,286047005.2,N
1667972795.8,286047006.3,N
1667972815.6,286047009.3,N
1667972835.5,286047010.2,N
1667972855.3,286047008.6,N
1667972875.1,286047004.5,N
1667972895.9,286047003.3,N
1667972915.7,286047001.3,N
1667972935.6,286046997.7,N
1667972955.4,286046992.9,N
1667972975.2,286046989.2,N
1667972995.1,286046986.7,N
1667972996.0,286046986.7,N
1667973015.8,286046980.7,N
1667973035.6,286046976.7,N
1667973055.5,286046973.2,N
1667973075.3,286046968.4,N
1667973095.2,286046962.5,N
1667973115.9,286046959.2,N
1667973135.7,286046957.7,N
1667973155.6,286046955.7,N
1667973175.4,286046953.6,N
1667973195.2,286046955.1,N
1667973215.1,286046954.2,N
1667973216.0,286046954.2,N
1667973235.8,286046953.7,N
1667973255.7,286046956.3,N
1667973275.5,286046956.2,N
1667973295.3,286046954.5,N
1667973315.2,286046956.2,N
1667973335.0,286046955.4,N
1667973335.9,286046955.4,N
1667973355.7,286046957.0,N
1667973375.6,286046959.5,N
1667973395.4,286046960.1,N
1667973415.3,286046963.4,N
1667973435.1,286046967.5,N
1667973436.0,286046967.5,N
1667973455.8,286046965.2,N
1667973475.7,286046967.6,N
1667973495.5,286046968.4,N
1667973515.3,286046973.6,N
1667973535.2,286046978.8,N
1667973555.0,286046984.5,N
1667973555.9,286046984.5,N
1667973575.8,286046989.2,N
1667973595.6,286046990.8,N
